Location: ????????
(56.1167°N, 38.6333°E)
Time: 10:37:36
(UTC+00:00)

Cosmos 1346 Rocket - Pass Details

Date: 22 February 2026
Orbit: 476 x 485 km, 81.2° (Epoch: 11 March)

Event Time Altitude Azimuth Distance (km) Brightness Sun altitude
Rises 01:18:56 0° 350° (N) 2,571 6.4 -27.5°
Reaches altitude 10° 01:21:12 10° 0° (N) 1,686 5.6 -27.3°
Maximum altitude 01:24:35 33° 67° (ENE) 838 4.3 -26.8°
Drops below altitude 10° 01:27:57 10° 133° (SE) 1,677 5.5 -26.4°
Sets 01:30:12 0° 143° (SE) 2,553 6.4 -26.1°
